Philip, SD

7:55 PM MST on December 11, 2017 (GMT -0700)
Philip

Weather History for KPHP - October, 2011

Change the Weather History Date:

Sunday, October 23, 2011

  Actual Average Record
Temperature  
Mean Temperature 57 °F 45 °F  
Max Temperature 72 °F 60 °F 82 °F (1952)
Min Temperature 41 °F 31 °F 12 °F (2002)
Degree Days  
Heating Degree Days 8 20  
Month to date heating degree days 246 343  
Since 1 July heating degree days 365 529  
Cooling Degree Days 0 0  
Month to date cooling degree days 36 0  
Year to date cooling degree days 837 814  
Growing Degree Days 6 (Base 50)    
Moisture  
Dew Point 36 °F    
Average Humidity 56    
Maximum Humidity 86    
Minimum Humidity 25    
Precipitation  
Precipitation 0.00 in 0.04 in 0.12 in (1998)
Month to date precipitation 0.26 1.14  
Year to date precipitation 15.34 16.01  
Sea Level Pressure  
Sea Level Pressure 29.95 in    
Wind  
Wind Speed 11 mph (West)    
Max Wind Speed 24 mph    
Max Gust Speed 33 mph    
Visibility 10 miles    
Events      
T = Trace of Precipitation, MM = Missing Value Source: NWS Daily Summary

Daily Weather History Graph

Daily Weather History Graph

Search for Another Location

Airport or City:

Trip Planner

Search our weather history database for the weather conditions in past years. The results will help you decide how hot, cold, wet, or windy it might be!

Date:

Astronomy

Oct. 23, 2011 Rise Set
Actual Time 7:10 AM MDT 5:49 PM MDT
Civil Twilight 6:41 AM MDT 6:19 PM MDT
Nautical Twilight 6:07 AM MDT 6:53 PM MDT
Astronomical Twilight 5:34 AM MDT 7:26 PM MDT
Moon 3:13 AM MDT (10/23) 3:47 PM MDT (10/23)
Length of Visible Light 11h 37m
Length of Day
10h 39m
Waning Crescent, 14% of the Moon is Illuminated
Oct 23
Waning Crescent
Oct 26
New
Nov 2
First Quarter
Nov 10
Full
Nov 18
Last Quarter

Hourly Weather History & Observations

Time (MDT) Temp. Windchill Dew Point Humidity Pressure Visibility Wind Dir Wind Speed Gust Speed Precip Events Conditions
12:55 AM 48.9 °F - 41.0 °F 74% 29.90 in 10.0 mi West 3.5 mph - N/A   Scattered Clouds
1:55 AM 48.9 °F - 41.0 °F 74% 29.91 in 10.0 mi West 8.1 mph - N/A   Mostly Cloudy
2:55 AM 48.0 °F - 41.0 °F 77% 29.91 in 10.0 mi West 4.6 mph - N/A   Clear
3:55 AM 50.0 °F - 41.0 °F 71% 29.88 in 10.0 mi West 5.8 mph - N/A   Clear
4:55 AM 45.0 °F 40.6 °F 39.0 °F 80% 29.90 in 10.0 mi West 8.1 mph - N/A   Clear
5:55 AM 41.0 °F 35.8 °F 37.0 °F 86% 29.94 in 10.0 mi West 8.1 mph - N/A   Clear
6:55 AM 44.1 °F 38.6 °F 37.0 °F 76% 29.95 in 10.0 mi West 10.4 mph - N/A   Clear
7:55 AM 46.9 °F - 37.0 °F 68% 29.97 in 10.0 mi West 12.7 mph - N/A   Clear
8:55 AM 55.0 °F - 37.0 °F 51% 29.97 in 10.0 mi WNW 11.5 mph - N/A   Clear
9:55 AM 63.0 °F - 36.0 °F 37% 29.96 in 10.0 mi WNW 19.6 mph 23.0 mph N/A   Clear
10:55 AM 66.0 °F - 33.1 °F 29% 29.96 in 10.0 mi NW 20.7 mph 27.6 mph N/A   Clear
11:55 AM 66.9 °F - 32.0 °F 27% 29.96 in 10.0 mi NW 16.1 mph 27.6 mph N/A   Clear
12:55 PM 69.1 °F - 33.1 °F 26% 29.94 in 10.0 mi WNW 18.4 mph 28.8 mph N/A   Clear
1:55 PM 70.0 °F - 32.0 °F 25% 29.92 in 10.0 mi WNW 18.4 mph 27.6 mph N/A   Partly Cloudy
2:55 PM 70.0 °F - 32.0 °F 25% 29.92 in 10.0 mi West 17.3 mph - N/A   Mostly Cloudy
3:55 PM 70.0 °F - 33.1 °F 26% 29.92 in 10.0 mi WNW 17.3 mph 26.5 mph N/A   Partly Cloudy
4:55 PM 68.0 °F - 33.1 °F 27% 29.94 in 10.0 mi WNW 17.3 mph 28.8 mph N/A   Clear
5:55 PM 61.0 °F - 36.0 °F 39% 29.98 in 10.0 mi West 9.2 mph - N/A   Clear
6:55 PM 55.0 °F - 36.0 °F 49% 29.99 in 10.0 mi WSW 4.6 mph - N/A   Clear
7:55 PM 48.9 °F - 35.1 °F 59% 30.01 in 10.0 mi WSW 6.9 mph - N/A   Clear
8:55 PM 48.0 °F - 35.1 °F 61% 30.01 in 10.0 mi Calm Calm - N/A   Clear
9:55 PM 46.0 °F 44.8 °F 35.1 °F 66% 30.01 in 10.0 mi West 3.5 mph - N/A   Clear
10:55 PM 44.1 °F 40.8 °F 35.1 °F 71% 30.02 in 10.0 mi WSW 5.8 mph - N/A   Clear
11:55 PM 45.0 °F 41.8 °F 36.0 °F 71% 30.02 in 10.0 mi West 5.8 mph - N/A   Clear